Terminal Aerodrome Forecast
Issued by NWS

Home | Current Version | Previous Version | Text Only | Print | Product List | Glossary Off
Versions: 1 2 3 4 5 6 7 8 9 10 11 12 13 14 15 16 17 18 19 20 21 22 23 24 25 26 27 28 29 30 31 32 33 34 35 36 37 38 39 40 41 42 43 44 45 46 47 48 49 50

000
FTUS43 KLOT 290900 AAA
TAFGYY
TAF AMD
KGYY 290900Z 2909/3006 16011KT P6SM BKN150
     FM291300 19015G25KT P6SM BKN120
     FM291500 20025G40KT P6SM OVC080
      TEMPO 2916/2917 -RAPLSN OVC040
     FM291700 20025G35KT 4SM -SHRA OVC025
     FM292000 22020G30KT P6SM OVC030
     FM300100 27013G25KT P6SM BKN025=

USA.gov is the U.S. government's official web portal to all federal, state and local government web resources and services.